Regional Weather Roundup
Issued by NWS Goodland, KS

Home | Current Version | Previous Version | Text Only | Print | Product List | Glossary Off
Versions: 1 2 3 4 5 6 7 8 9 10 11 12 13 14 15 16 17 18 19 20 21 22 23 24 25 26 27 28 29 30 31 32 33 34 35 36 37 38 39 40 41 42 43 44 45 46 47 48 49 50

000
ASUS43 KGLD 221259
RWRGLD

GOODLAND FORECAST AREA HOURLY WEATHER ROUNDUP
NATIONAL WEATHER SERVICE GOODLAND KS
700 AM MDT SAT JUL 22 2017

...OFFICIAL OBSERVATIONS...

CITY           SKY/WX    TMP DP  RH WIND       PRES   REMARKS
GOODLAND KS    CLOUDY    69  59  70 NW13      30.06R
HILL CITY KS   SUNNY     73  60  63 W8        29.91R
IMPERIAL NEB   MOSUNNY   72  58  61 NW7       30.03R
MCCOOK NEB     MOSUNNY   77  59  53 N7        29.94R
AKRON CO       CLOUDY    64  61  90 W12       30.11S
BURLINGTON CO  PTSUNNY   70  61  73 NW13      30.08R
LIMON CO       MOSUNNY   62  60  93 W6        30.19R
$$

...UNOFFICIAL OBSERVATIONS...

CITY           SKY/WX    TMP DP  RH WIND       PRES   REMARKS
LENORA KS        N/A     72  32  23 MISG        N/A
NORTON KS      SUNNY     79  54  41 CALM      29.89S
SHARON SPRINGS   N/A     67  60  78 W6          N/A
TRENTON NEB      N/A     75  32  20 N8          N/A
KIT CARSON CO    N/A     67  58  73 MISG        N/A
YUMA CO        FAIR      64  54  68 NE9       30.08R
$$




USA.gov is the U.S. government's official web portal to all federal, state and local government web resources and services.